Date,TemperatureHighF,TemperatureAvgF,TemperatureLowF,DewpointHighF,DewpointAvgF,DewpointLowF,HumidityHigh,HumidityAvg,HumidityLow,PressureMaxIn,PressureMinIn,WindSpeedMaxMPH,WindSpeedAvgMPH,GustSpeedMaxMPH,PrecipitationSumIn
2013-9-1,81.4,75.5,69.8,76.2,72.3,68.0,95,90,79,29.93,29.75,24,1,24,1.34
2013-9-2,88.1,75.6,66.7,71.3,68.0,63.1,95,79,52,29.93,29.81,9,1,11,0.00
2013-9-3,84.8,70.7,60.8,65.9,61.4,58.0,94,76,42,30.05,29.93,12,1,12,0.00
2013-9-4,84.3,70.6,57.9,67.8,62.0,56.0,94,77,47,30.15,30.04,6,0,7,0.01
2013-9-5,83.7,69.8,58.4,68.4,62.8,56.7,95,80,47,30.18,30.10,8,0,8,0.00
2013-9-6,85.8,70.6,62.4,70.7,64.7,60.7,95,84,51,30.16,30.03,8,0,8,0.00
2013-9-7,89.3,78.9,60.4,72.7,67.9,58.7,95,71,49,30.06,29.92,4,1,9,0.00
2013-9-8,88.6,74.9,64.8,76.2,70.0,63.0,95,86,59,29.96,29.88,9,0,13,0.04
2013-9-9,95.3,80.4,69.7,78.7,73.6,68.2,95,82,46,29.98,29.90,9,0,9,0.00
2013-9-10,95.0,83.1,68.8,76.6,71.9,66.7,95,71,44,30.09,29.98,11,0,11,0.00
2013-9-11,93.0,78.1,68.3,77.2,71.8,66.2,95,82,52,30.13,30.02,7,0,7,0.00
2013-9-12,87.4,76.4,68.0,74.3,70.7,66.2,95,84,61,30.04,29.93,23,1,23,0.05
2013-9-13,77.5,67.0,57.1,67.7,56.6,52.8,94,71,47,30.08,29.98,15,2,15,0.01
2013-9-14,74.7,60.9,48.9,54.5,50.7,46.4,93,72,43,30.15,30.03,9,1,9,0.00
2013-9-15,81.5,63.3,46.2,60.5,53.5,44.0,97,74,42,30.10,30.02,10,1,10,0.00
2013-9-16,69.3,64.9,60.5,65.8,62.0,57.2,94,90,84,30.20,30.07,15,1,15,0.11
2013-9-17,82.3,70.0,61.8,69.2,64.3,59.8,94,83,62,30.19,30.05,9,1,9,0.01
2013-9-18,87.2,75.6,67.2,71.1,68.3,65.1,94,79,55,30.08,29.95,13,1,13,0.00
2013-9-19,88.7,77.3,69.3,75.7,71.2,67.5,94,82,60,30.03,29.89,11,1,11,0.00
2013-9-20,73.2,69.8,64.8,69.8,67.8,63.0,95,93,85,29.93,29.83,10,1,14,0.28
2013-9-21,74.5,63.7,53.7,63.0,55.2,51.7,94,76,45,29.94,29.86,15,2,15,0.00
2013-9-22,74.8,63.9,48.4,57.0,52.5,46.5,94,70,44,30.00,29.90,10,1,10,0.00
2013-9-23,76.9,61.5,46.6,57.9,52.6,44.7,95,76,44,30.00,29.89,8,1,11,0.01
2013-9-24,79.7,67.0,53.6,69.0,62.0,51.6,94,85,67,29.92,29.77,14,1,14,0.00
2013-9-25,77.7,68.9,63.6,68.8,65.3,61.8,95,89,69,29.86,29.76,11,0,11,0.60
2013-9-26,81.0,68.9,59.1,68.8,63.6,57.7,95,84,60,29.99,29.84,8,0,8,0.00
2013-9-27,81.5,69.5,57.6,66.7,62.0,55.8,95,79,54,30.08,29.98,12,1,12,0.00
2013-9-28,81.7,70.9,60.9,66.4,63.0,58.7,94,77,57,30.08,29.96,19,2,19,0.00
2013-9-29,71.0,67.6,64.2,63.8,62.8,61.2,92,85,74,30.01,29.94,12,1,12,0.00
2013-9-30,72.4,67.6,64.5,67.0,64.6,62.8,95,90,82,29.97,29.90,10,1,10,0.00